Time,TemperatureF,DewpointF,PressureIn,WindDirection,WindDirectionDegrees,WindSpeedMPH,WindSpeedGustMPH,Humidity,HourlyPrecipIn,Conditions,Clouds,dailyrainin,SoftwareType,DateUTC
2013-03-23 00:02:00,36.0,21.0,30.03,North,0,0.0,-999.0,55,-99.99,,,-99.99,,2013-03-23 05:02:00,
2013-03-23 00:12:00,36.0,21.0,30.03,North,0,0.0,-999.0,55,-99.99,,,-99.99,,2013-03-23 05:12:00,
2013-03-23 00:22:00,36.0,21.0,30.03,North,0,0.0,-999.0,55,-99.99,,,-99.99,,2013-03-23 05:22:00,
2013-03-23 00:32:00,36.0,21.0,30.04,North,0,0.0,-999.0,55,-99.99,,,-99.99,,2013-03-23 05:32:00,
2013-03-23 00:42:00,36.0,21.0,30.03,North,0,0.0,-999.0,55,-99.99,,,-99.99,,2013-03-23 05:42:00,
2013-03-23 00:52:00,36.0,21.0,30.03,North,0,0.0,-999.0,55,-99.99,,,-99.99,,2013-03-23 05:52:00,
2013-03-23 01:02:00,36.0,23.0,30.03,North,0,0.0,-999.0,59,-99.99,,,-99.99,,2013-03-23 06:02:00,
2013-03-23 01:22:00,36.0,23.0,30.03,North,0,0.0,-999.0,59,-99.99,,,-99.99,,2013-03-23 06:22:00,
2013-03-23 01:32:00,36.0,21.0,30.03,North,0,0.0,-999.0,55,-99.99,,,-99.99,,2013-03-23 06:32:00,
2013-03-23 01:42:00,36.0,23.0,30.03,North,0,0.0,-999.0,59,-99.99,,,-99.99,,2013-03-23 06:42:00,
2013-03-23 01:52:00,36.0,23.0,30.03,North,0,0.0,-999.0,59,-99.99,,,-99.99,,2013-03-23 06:52:00,
2013-03-23 02:02:00,36.0,23.0,30.03,North,0,0.0,-999.0,59,-99.99,,,-99.99,,2013-03-23 07:02:00,
2013-03-23 02:12:00,36.0,23.0,30.03,North,0,0.0,-999.0,59,-99.99,,,-99.99,,2013-03-23 07:12:00,
2013-03-23 02:22:00,36.0,23.0,30.03,North,0,0.0,-999.0,59,-99.99,,,-99.99,,2013-03-23 07:22:00,
2013-03-23 02:32:00,36.0,23.0,30.03,North,0,0.0,-999.0,59,-99.99,,,-99.99,,2013-03-23 07:32:00,
2013-03-23 02:42:00,36.0,23.0,30.03,North,0,0.0,-999.0,59,-99.99,,,-99.99,,2013-03-23 07:42:00,
2013-03-23 02:52:00,36.0,23.0,30.03,North,0,0.0,-999.0,59,-99.99,,,-99.99,,2013-03-23 07:52:00,
2013-03-23 03:02:00,36.0,23.0,30.03,North,0,0.0,-999.0,59,-99.99,,,-99.99,,2013-03-23 08:02:00,
2013-03-23 03:12:00,36.0,23.0,30.03,North,0,0.0,-999.0,59,-99.99,,,-99.99,,2013-03-23 08:12:00,
2013-03-23 03:22:00,36.0,23.0,30.03,North,0,0.0,-999.0,59,-99.99,,,-99.99,,2013-03-23 08:22:00,
2013-03-23 03:32:00,36.0,23.0,30.03,North,0,0.0,-999.0,59,-99.99,,,-99.99,,2013-03-23 08:32:00,
2013-03-23 03:42:00,36.0,23.0,30.03,North,0,0.0,-999.0,59,-99.99,,,-99.99,,2013-03-23 08:42:00,
2013-03-23 03:52:00,36.0,23.0,30.03,North,0,0.0,-999.0,59,-99.99,,,-99.99,,2013-03-23 08:52:00,
2013-03-23 04:02:00,36.0,23.0,30.03,North,0,0.0,-999.0,59,-99.99,,,-99.99,,2013-03-23 09:02:00,
2013-03-23 04:12:00,36.0,23.0,30.03,North,0,0.0,-999.0,59,-99.99,,,-99.99,,2013-03-23 09:12:00,
2013-03-23 04:22:00,36.0,23.0,30.03,North,0,0.0,-999.0,59,-99.99,,,-99.99,,2013-03-23 09:22:00,
2013-03-23 04:33:00,36.0,23.0,30.02,North,0,0.0,-999.0,59,-99.99,,,-99.99,,2013-03-23 09:33:00,
2013-03-23 04:42:00,36.0,23.0,30.02,North,0,0.0,-999.0,59,-99.99,,,-99.99,,2013-03-23 09:42:00,
2013-03-23 04:53:00,36.0,23.0,30.02,North,0,0.0,-999.0,59,-99.99,,,-99.99,,2013-03-23 09:53:00,
2013-03-23 05:03:00,36.0,23.0,30.02,North,0,0.0,-999.0,59,-99.99,,,-99.99,,2013-03-23 10:03:00,
2013-03-23 05:12:00,36.0,23.0,30.02,North,0,0.0,-999.0,59,-99.99,,,-99.99,,2013-03-23 10:12:00,
2013-03-23 05:23:00,36.0,23.0,30.01,North,0,0.0,-999.0,59,-99.99,,,-99.99,,2013-03-23 10:23:00,
2013-03-23 05:33:00,36.0,23.0,30.02,North,0,0.0,-999.0,59,-99.99,,,-99.99,,2013-03-23 10:33:00,
2013-03-23 05:42:00,36.0,23.0,30.01,North,0,0.0,-999.0,59,-99.99,,,-99.99,,2013-03-23 10:42:00,
2013-03-23 05:52:00,36.0,23.0,30.02,NNE,20,3.0,-999.0,59,-99.99,,,-99.99,,2013-03-23 10:52:00,
2013-03-23 06:03:00,36.0,23.0,30.02,North,0,0.0,-999.0,59,-99.99,,,-99.99,,2013-03-23 11:03:00,
2013-03-23 06:12:00,36.0,23.0,30.02,North,0,0.0,-999.0,59,-99.99,,,-99.99,,2013-03-23 11:12:00,
2013-03-23 06:22:00,36.0,23.0,30.02,North,0,0.0,-999.0,59,-99.99,,,-99.99,,2013-03-23 11:22:00,
2013-03-23 06:32:00,36.0,23.0,30.02,North,0,0.0,-999.0,59,-99.99,,,-99.99,,2013-03-23 11:32:00,
2013-03-23 06:42:00,36.0,21.0,30.03,North,0,0.0,-999.0,55,-99.99,,,-99.99,,2013-03-23 11:42:00,
2013-03-23 06:52:00,36.0,21.0,30.03,North,0,0.0,-999.0,55,-99.99,,,-99.99,,2013-03-23 11:52:00,
2013-03-23 07:02:00,36.0,23.0,30.03,North,0,0.0,-999.0,59,-99.99,,,-99.99,,2013-03-23 12:02:00,
2013-03-23 07:13:00,36.0,23.0,30.03,North,0,0.0,-999.0,59,-99.99,,,-99.99,,2013-03-23 12:13:00,
2013-03-23 07:22:00,36.0,23.0,30.04,North,0,0.0,-999.0,59,-99.99,,,-99.99,,2013-03-23 12:22:00,
2013-03-23 07:33:00,36.0,21.0,30.05,North,0,0.0,-999.0,55,-99.99,,,-99.99,,2013-03-23 12:33:00,
2013-03-23 07:42:00,36.0,21.0,30.05,North,0,0.0,-999.0,55,-99.99,,,-99.99,,2013-03-23 12:42:00,
2013-03-23 07:53:00,36.0,21.0,30.06,North,0,0.0,-999.0,55,-99.99,,,-99.99,,2013-03-23 12:53:00,
2013-03-23 08:02:00,36.0,21.0,30.06,North,0,0.0,-999.0,55,-99.99,,,-99.99,,2013-03-23 13:02:00,
2013-03-23 08:12:00,36.0,21.0,30.06,North,0,0.0,-999.0,55,-99.99,,,-99.99,,2013-03-23 13:12:00,
2013-03-23 08:22:00,36.0,21.0,30.06,North,0,0.0,-999.0,55,-99.99,,,-99.99,,2013-03-23 13:22:00,
2013-03-23 08:32:00,36.0,21.0,30.05,North,0,0.0,-999.0,55,-99.99,,,-99.99,,2013-03-23 13:32:00,
2013-03-23 08:42:00,37.0,23.0,30.05,North,0,0.0,-999.0,55,-99.99,,,-99.99,,2013-03-23 13:42:00,
2013-03-23 08:53:00,37.0,23.0,30.05,North,0,0.0,-999.0,55,-99.99,,,-99.99,,2013-03-23 13:53:00,
2013-03-23 09:03:00,37.0,23.0,30.05,North,0,0.0,-999.0,55,-99.99,,,-99.99,,2013-03-23 14:03:00,
2013-03-23 09:12:00,37.0,23.0,30.05,North,0,0.0,-999.0,55,-99.99,,,-99.99,,2013-03-23 14:12:00,
2013-03-23 09:22:00,37.0,23.0,30.05,North,0,0.0,-999.0,55,-99.99,,,-99.99,,2013-03-23 14:22:00,
2013-03-23 09:33:00,37.0,23.0,30.05,ENE,70,6.0,-999.0,55,-99.99,,,-99.99,,2013-03-23 14:33:00,
2013-03-23 09:43:00,39.0,23.0,30.05,ENE,70,6.0,-999.0,51,-99.99,,,-99.99,,2013-03-23 14:43:00,
2013-03-23 09:53:00,39.0,21.0,30.05,ENE,70,8.0,-999.0,48,-99.99,,,-99.99,,2013-03-23 14:53:00,
2013-03-23 10:03:00,43.0,21.0,30.04,East,80,7.0,-999.0,41,-99.99,,,-99.99,,2013-03-23 15:03:00,
2013-03-23 10:12:00,43.0,21.0,30.04,East,80,7.0,-999.0,41,-99.99,,,-99.99,,2013-03-23 15:12:00,
2013-03-23 10:22:00,45.0,19.0,30.05,East,80,8.0,-999.0,36,-99.99,,,-99.99,,2013-03-23 15:22:00,
2013-03-23 10:33:00,43.0,21.0,30.05,East,100,8.0,-999.0,41,-99.99,,,-99.99,,2013-03-23 15:33:00,
2013-03-23 10:43:00,43.0,21.0,30.05,East,100,8.0,-999.0,41,-99.99,,,-99.99,,2013-03-23 15:43:00,
2013-03-23 10:53:00,45.0,19.0,30.05,NE,40,7.0,-999.0,36,-99.99,,,-99.99,,2013-03-23 15:53:00,
2013-03-23 11:03:00,45.0,19.0,30.05,ENE,70,7.0,-999.0,36,-99.99,,,-99.99,,2013-03-23 16:03:00,
2013-03-23 11:12:00,45.0,19.0,30.05,ENE,70,7.0,-999.0,36,-99.99,,,-99.99,,2013-03-23 16:12:00,
2013-03-23 11:23:00,45.0,16.0,30.05,NE,50,9.0,-999.0,30,-99.99,,,-99.99,,2013-03-23 16:23:00,
2013-03-23 11:32:00,45.0,16.0,30.05,East,90,6.0,-999.0,30,-99.99,,,-99.99,,2013-03-23 16:32:00,
2013-03-23 11:43:00,45.0,16.0,30.05,East,90,6.0,-999.0,30,-99.99,,,-99.99,,2013-03-23 16:43:00,
2013-03-23 11:53:00,46.0,18.0,30.05,East,80,10.0,-999.0,31,-99.99,,,-99.99,,2013-03-23 16:53:00,
2013-03-23 12:02:00,48.0,18.0,30.05,ENE,70,7.0,-999.0,29,-99.99,,,-99.99,,2013-03-23 17:02:00,
2013-03-23 12:12:00,48.0,18.0,30.05,ENE,70,7.0,-999.0,29,-99.99,,,-99.99,,2013-03-23 17:12:00,
2013-03-23 12:22:00,48.0,18.0,30.05,ENE,70,7.0,-999.0,29,-99.99,,,-99.99,,2013-03-23 17:22:00,
2013-03-23 12:32:00,48.0,16.0,30.05,ENE,60,9.0,-999.0,27,-99.99,,,-99.99,,2013-03-23 17:32:00,
2013-03-23 12:42:00,48.0,16.0,30.05,ENE,60,9.0,-999.0,27,-99.99,,,-99.99,,2013-03-23 17:42:00,
2013-03-23 12:53:00,50.0,18.0,30.04,NE,40,9.0,-999.0,27,-99.99,,,-99.99,,2013-03-23 17:53:00,
2013-03-23 13:03:00,50.0,18.0,30.04,NE,40,10.0,-999.0,27,-99.99,,,-99.99,,2013-03-23 18:03:00,
2013-03-23 13:12:00,50.0,18.0,30.04,NE,40,10.0,-999.0,27,-99.99,,,-99.99,,2013-03-23 18:12:00,
2013-03-23 13:22:00,50.0,18.0,30.04,NE,40,10.0,-999.0,27,-99.99,,,-99.99,,2013-03-23 18:22:00,
2013-03-23 13:32:00,50.0,18.0,30.03,ENE,70,9.0,16.0,27,-99.99,,,-99.99,,2013-03-23 18:32:00,
2013-03-23 13:42:00,50.0,18.0,30.03,NE,40,12.0,17.0,27,-99.99,,,-99.99,,2013-03-23 18:42:00,
2013-03-23 13:53:00,50.0,19.0,30.03,North,10,7.0,-999.0,29,-99.99,,,-99.99,,2013-03-23 18:53:00,
2013-03-23 14:03:00,50.0,19.0,30.03,North,10,7.0,-999.0,29,-99.99,,,-99.99,,2013-03-23 19:03:00,
2013-03-23 14:12:00,50.0,19.0,30.03,North,10,7.0,-999.0,29,-99.99,,,-99.99,,2013-03-23 19:12:00,
2013-03-23 14:22:00,50.0,19.0,30.03,North,10,7.0,-999.0,29,-99.99,,,-99.99,,2013-03-23 19:22:00,
2013-03-23 14:32:00,50.0,19.0,30.03,North,10,7.0,-999.0,29,-99.99,,,-99.99,,2013-03-23 19:32:00,
2013-03-23 14:43:00,50.0,19.0,29.99,NNE,30,8.0,-999.0,29,-99.99,,,-99.99,,2013-03-23 19:43:00,
2013-03-23 14:53:00,50.0,19.0,29.98,NE,50,8.0,-999.0,29,-99.99,,,-99.99,,2013-03-23 19:53:00,
2013-03-23 15:03:00,50.0,19.0,29.97,NE,50,8.0,-999.0,29,-99.99,,,-99.99,,2013-03-23 20:03:00,
2013-03-23 15:13:00,50.0,19.0,29.97,NE,50,8.0,-999.0,29,-99.99,,,-99.99,,2013-03-23 20:13:00,
2013-03-23 15:22:00,52.0,18.0,29.96,NE,50,8.0,-999.0,25,-99.99,,,-99.99,,2013-03-23 20:22:00,
2013-03-23 15:32:00,52.0,18.0,29.96,NE,50,8.0,-999.0,25,-99.99,,,-99.99,,2013-03-23 20:32:00,
2013-03-23 15:42:00,52.0,18.0,29.96,NE,50,8.0,-999.0,25,-99.99,,,-99.99,,2013-03-23 20:42:00,
2013-03-23 15:53:00,52.0,19.0,29.94,NNE,30,10.0,16.0,27,-99.99,,,-99.99,,2013-03-23 20:53:00,
2013-03-23 16:02:00,52.0,19.0,29.94,NNE,30,10.0,16.0,27,-99.99,,,-99.99,,2013-03-23 21:02:00,
2013-03-23 16:12:00,52.0,19.0,29.94,NNE,30,10.0,16.0,27,-99.99,,,-99.99,,2013-03-23 21:12:00,
2013-03-23 16:22:00,52.0,18.0,29.92,NE,50,10.0,-999.0,25,-99.99,,,-99.99,,2013-03-23 21:22:00,
2013-03-23 16:33:00,52.0,18.0,29.91,NE,50,10.0,-999.0,25,-99.99,,,-99.99,,2013-03-23 21:33:00,
2013-03-23 16:43:00,52.0,19.0,29.91,NE,40,12.0,16.0,27,-99.99,,,-99.99,,2013-03-23 21:43:00,
2013-03-23 16:54:00,52.0,19.0,29.90,NE,40,12.0,20.0,27,-99.99,,,-99.99,,2013-03-23 21:54:00,
2013-03-23 17:03:00,52.0,19.0,29.90,NE,40,12.0,20.0,27,-99.99,,,-99.99,,2013-03-23 22:03:00,
2013-03-23 17:12:00,52.0,19.0,29.90,NE,40,12.0,20.0,27,-99.99,,,-99.99,,2013-03-23 22:12:00,
2013-03-23 17:23:00,50.0,19.0,29.89,NE,50,12.0,17.0,29,-99.99,,,-99.99,,2013-03-23 22:23:00,
2013-03-23 17:33:00,50.0,19.0,29.90,ENE,60,12.0,16.0,29,-99.99,,,-99.99,,2013-03-23 22:33:00,
2013-03-23 17:43:00,50.0,19.0,29.90,ENE,60,12.0,16.0,29,-99.99,,,-99.99,,2013-03-23 22:43:00,
2013-03-23 17:53:00,50.0,19.0,29.90,ENE,60,12.0,16.0,29,-99.99,,,-99.99,,2013-03-23 22:53:00,
2013-03-23 18:02:00,50.0,19.0,29.91,NE,50,6.0,-999.0,29,-99.99,,,-99.99,,2013-03-23 23:02:00,
2013-03-23 18:12:00,50.0,19.0,29.91,NE,50,6.0,-999.0,29,-99.99,,,-99.99,,2013-03-23 23:12:00,
2013-03-23 18:23:00,50.0,19.0,29.91,NE,50,6.0,-999.0,29,-99.99,,,-99.99,,2013-03-23 23:23:00,
2013-03-23 18:33:00,50.0,19.0,29.91,NE,50,6.0,-999.0,29,-99.99,,,-99.99,,2013-03-23 23:33:00,
2013-03-23 18:42:00,50.0,19.0,29.91,NE,50,6.0,-999.0,29,-99.99,,,-99.99,,2013-03-23 23:42:00,
2013-03-23 19:42:00,48.0,21.0,29.89,NE,40,7.0,-999.0,34,-99.99,,,-99.99,,2013-03-24 00:42:00,
2013-03-23 19:52:00,48.0,21.0,29.89,NE,40,7.0,-999.0,34,-99.99,,,-99.99,,2013-03-24 00:52:00,
2013-03-23 20:02:00,48.0,21.0,29.89,NE,40,7.0,-999.0,34,-99.99,,,-99.99,,2013-03-24 01:02:00,
2013-03-23 20:12:00,48.0,21.0,29.89,NE,40,7.0,-999.0,34,-99.99,,,-99.99,,2013-03-24 01:12:00,
2013-03-23 20:22:00,46.0,21.0,29.90,ENE,70,8.0,-999.0,36,-99.99,,,-99.99,,2013-03-24 01:22:00,
2013-03-23 20:33:00,46.0,23.0,29.90,NNE,20,10.0,16.0,39,-99.99,,,-99.99,,2013-03-24 01:33:00,
2013-03-23 20:43:00,46.0,23.0,29.90,NNE,20,10.0,16.0,39,-99.99,,,-99.99,,2013-03-24 01:43:00,
2013-03-23 20:53:00,46.0,23.0,29.90,NNE,30,9.0,-999.0,39,-99.99,,,-99.99,,2013-03-24 01:53:00,
2013-03-23 21:03:00,46.0,23.0,29.90,NNE,30,9.0,-999.0,39,-99.99,,,-99.99,,2013-03-24 02:03:00,
2013-03-23 21:12:00,46.0,23.0,29.90,NNE,30,9.0,-999.0,39,-99.99,,,-99.99,,2013-03-24 02:12:00,
2013-03-23 21:22:00,46.0,23.0,29.91,NNE,20,8.0,-999.0,39,-99.99,,,-99.99,,2013-03-24 02:22:00,
2013-03-23 21:32:00,46.0,23.0,29.90,NNE,30,6.0,-999.0,39,-99.99,,,-99.99,,2013-03-24 02:32:00,
2013-03-23 21:43:00,46.0,23.0,29.91,NNE,20,6.0,-999.0,39,-99.99,,,-99.99,,2013-03-24 02:43:00,
2013-03-23 21:52:00,46.0,23.0,29.91,NNE,30,8.0,-999.0,39,-99.99,,,-99.99,,2013-03-24 02:52:00,
2013-03-23 22:02:00,45.0,23.0,29.91,NE,40,10.0,16.0,42,-99.99,,,-99.99,,2013-03-24 03:02:00,
2013-03-23 22:12:00,45.0,23.0,29.91,NE,40,10.0,16.0,42,-99.99,,,-99.99,,2013-03-24 03:12:00,
2013-03-23 22:22:00,45.0,23.0,29.91,NE,40,10.0,16.0,42,-99.99,,,-99.99,,2013-03-24 03:22:00,
2013-03-23 22:33:00,45.0,23.0,29.91,NE,40,10.0,16.0,42,-99.99,,,-99.99,,2013-03-24 03:33:00,
2013-03-23 22:42:00,45.0,23.0,29.91,NE,40,10.0,16.0,42,-99.99,,,-99.99,,2013-03-24 03:42:00,
2013-03-23 22:53:00,43.0,28.0,29.93,NE,50,10.0,16.0,56,-99.99,,,-99.99,,2013-03-24 03:53:00,
2013-03-23 23:03:00,41.0,30.0,29.93,ENE,60,10.0,16.0,65,-99.99,,,-99.99,,2013-03-24 04:03:00,
2013-03-23 23:13:00,41.0,30.0,29.93,ENE,60,10.0,16.0,65,-99.99,,,-99.99,,2013-03-24 04:13:00,
2013-03-23 23:22:00,39.0,32.0,29.93,NE,40,8.0,17.0,75,-99.99,,,-99.99,,2013-03-24 04:22:00,
2013-03-23 23:32:00,39.0,32.0,29.93,NE,40,7.0,16.0,75,-99.99,,,-99.99,,2013-03-24 04:32:00,
2013-03-23 23:42:00,39.0,32.0,29.93,NE,40,7.0,16.0,75,-99.99,,,-99.99,,2013-03-24 04:42:00,
2013-03-23 23:53:00,37.0,32.0,29.94,NNE,30,9.0,16.0,80,-99.99,,,-99.99,,2013-03-24 04:53:00,